RPA4780 KSYR-KBOS

Flight info

Callsign RPA4780
Flight time N/A
Altitude 25000
Route LAMMS PONCT JFUND2
Aircraft E75L/M-VGDW/C

Departure

Time 2026-04-26 22:57
Airport Syracuse Hancock International Airport (KSYR)

Arrival

Time N/A
Airport Boston Logan International Airport (KBOS)
Time Latitude Longitude Altitude Speed Heading
2026-04-26 22:42 43.11254 -76.10945 418 ft 0 kts 357°
2026-04-26 22:48 43.11251 -76.10944 418 ft 2 kts 356°
2026-04-26 22:48 43.11236 -76.10947 418 ft 2 kts 22°
2026-04-26 22:48 43.11224 -76.10958 418 ft 2 kts 44°
2026-04-26 22:49 43.11215 -76.10975 418 ft 2 kts 66°
2026-04-26 22:49 43.11212 -76.10992 418 ft 0 kts 86°
2026-04-26 22:49 43.11211 -76.10995 418 ft 0 kts 86°
2026-04-26 22:50 43.11212 -76.10989 418 ft 0 kts 86°
2026-04-26 22:51 43.11212 -76.10976 418 ft 2 kts 86°
2026-04-26 22:51 43.11214 -76.10934 418 ft 5 kts 86°
2026-04-26 22:51 43.11212 -76.10867 418 ft 8 kts 123°
2026-04-26 22:51 43.11155 -76.10825 418 ft 10 kts 172°
2026-04-26 22:52 43.11072 -76.10817 418 ft 13 kts 179°
2026-04-26 22:52 43.11007 -76.10733 416 ft 16 kts 90°
2026-04-26 22:52 43.11012 -76.10561 413 ft 18 kts 88°
2026-04-26 22:52 43.11018 -76.10379 412 ft 20 kts 89°
2026-04-26 22:53 43.11026 -76.10178 409 ft 22 kts 85°
2026-04-26 22:53 43.11031 -76.09961 408 ft 23 kts 87°
2026-04-26 22:53 43.11041 -76.09728 406 ft 24 kts 86°
2026-04-26 22:53 43.11048 -76.09484 402 ft 27 kts 86°
2026-04-26 22:54 43.11041 -76.09287 401 ft 11 kts 133°
2026-04-26 22:54 43.11027 -76.09274 401 ft 0 kts 161°
2026-04-26 22:54 43.11026 -76.09274 401 ft 0 kts 161°
2026-04-26 22:55 43.11015 -76.09270 401 ft 3 kts 168°
2026-04-26 22:55 43.10983 -76.09264 400 ft 6 kts 176°
2026-04-26 22:55 43.10933 -76.09292 400 ft 9 kts 242°
2026-04-26 22:55 43.10927 -76.09366 401 ft 0 kts 266°
2026-04-26 22:56 43.10923 -76.09455 401 ft 40 kts 268°
2026-04-26 22:56 43.10898 -76.10217 408 ft 117 kts 269°
2026-04-26 22:56 43.10827 -76.11549 647 ft 154 kts 264°
2026-04-26 22:57 43.10643 -76.12988 1402 ft 149 kts 265°
2026-04-26 22:57 43.10536 -76.14462 1775 ft 171 kts 268°
2026-04-26 22:57 43.10432 -76.16190 2278 ft 196 kts 268°
2026-04-26 22:57 43.10313 -76.18184 2666 ft 224 kts 268°
2026-04-26 22:58 43.10186 -76.20370 3015 ft 235 kts 268°
2026-04-26 22:58 43.10057 -76.22639 3428 ft 247 kts 268°
2026-04-26 22:58 43.09928 -76.25089 3882 ft 267 kts 268°
2026-04-26 22:58 43.09798 -76.27666 4304 ft 273 kts 268°
2026-04-26 22:59 43.09672 -76.30252 4732 ft 276 kts 268°
2026-04-26 22:59 43.09548 -76.32883 5135 ft 278 kts 268°
2026-04-26 22:59 43.09429 -76.35538 5552 ft 281 kts 269°
2026-04-26 22:59 43.09310 -76.38219 5962 ft 284 kts 269°
2026-04-26 23:00 43.08895 -76.40836 6364 ft 289 kts 241°
2026-04-26 23:00 43.07531 -76.42792 6819 ft 291 kts 208°
2026-04-26 23:00 43.05601 -76.43459 7295 ft 289 kts 174°
2026-04-26 23:00 43.03724 -76.42614 7766 ft 286 kts 141°
2026-04-26 23:01 43.02504 -76.40571 8224 ft 281 kts 108°
2026-04-26 23:01 43.02305 -76.37982 8676 ft 275 kts 74°
2026-04-26 23:01 43.02761 -76.35448 9119 ft 278 kts 76°
2026-04-26 23:01 43.03018 -76.32721 9578 ft 301 kts 81°
2026-04-26 23:02 43.03142 -76.29781 9986 ft 325 kts 84°